Location: Marcé
(47.5801°N, 0.3280°W)
Time: 08:42:58
(UTC+01:00)

Vanguard 1 - Pass Details

Date: 09 December 2021
Orbit: 652 x 3830 km, 34.2° (Epoch: 16 January)

Event Time Altitude Azimuth Distance (km) Brightness Sun altitude
Rises 22:48:31 0° 221° (SW) 6,296 14.2 -54.9°
Reaches altitude 10° 22:52:28 10° 215° (SW) 5,651 13.9 -55.4°
Enters shadow 22:55:17 17° 209° (SSW) 5,261 13.6 -55.8°
